Location: Newark
(48.1500°N, 13.1167°E)
Time: 17:52:47
(UTC+00:00)

XW-2D - Pass Details

Date: 07 December 2021
Orbit: 502 x 522 km, 97.5° (Epoch: 17 January)

Event Time Altitude Azimuth Distance (km) Brightness Sun altitude
Rises 17:18:34 0° 208° (SSW) 2,618 ? -19.8°
Reaches altitude 10° 17:21:20 10° 231° (SW) 1,742 ? -20.3°
Maximum altitude 17:23:39 16° 269° (W) 1,427 ? -20.7°
Drops below altitude 10° 17:26:01 10° 308° (NW) 1,760 ? -21.0°
Sets 17:28:50 0° 331° (NNW) 2,658 ? -21.5°
